Location: Azul
(36.7830°S, 59.8500°W)
Time: 10:13:12
(UTC-03:00)

UKube-1 - Pass Details

Date: 29 October 2021
Orbit: 611 x 617 km, 98.4° (Epoch: 07 December)

Event Time Altitude Azimuth Distance (km) Brightness Sun altitude
Exits shadow 21:17:21 26° 353° (N) 1,216 ? -20.0°
Maximum altitude 21:19:37 61° 282° (WNW) 709 ? -20.4°
Drops below altitude 10° 21:23:56 10° 200° (SSW) 2,004 ? -21.1°
Sets 21:26:10 0° 196° (SSW) 2,917 ? -21.4°
